CES7882 KPAE-ZBAA

Flight info

Callsign CES7882
Flight time N/A
Altitude 32000
Route PERLL DCT ARRIE J523 YZT DCT KATCH DCT LOHNE DCT CJAYY B757 ONEOX/N0490F340 B757 NULUK R220 NIKLL/N0495F350 R220 NOGAL/N0489F360 R220 IXE Y88 TEPEX Y16 SAPRA/N0486F380 Y685 SEL Y697 AGAVO/K0895S1160 A591 IKEKA W4 HCH W200 DOVIV W55 DUMAP DUMAP2G
Aircraft B77W/H-SDE1E2E3FGHIJ2J3J4J5M1RWXY/LB1D1

Departure

Time 2026-04-18 04:45
Airport Seattle Paine Field International Airport (KPAE)

Arrival

Time N/A
Airport Beijing Capital International Airport (ZBAA)
Time Latitude Longitude Altitude Speed Heading
2026-04-18 04:08 47.91748 -122.27943 584 ft 0 kts 91°
2026-04-18 04:31 47.91748 -122.27947 584 ft 1 kts 91°
2026-04-18 04:31 47.91748 -122.27969 582 ft 2 kts 91°
2026-04-18 04:32 47.91748 -122.27991 581 ft 2 kts 92°
2026-04-18 04:32 47.91751 -122.28013 580 ft 2 kts 118°
2026-04-18 04:32 47.91760 -122.28031 579 ft 2 kts 140°
2026-04-18 04:32 47.91772 -122.28043 579 ft 2 kts 160°
2026-04-18 04:33 47.91785 -122.28048 579 ft 0 kts 179°
2026-04-18 04:33 47.91791 -122.28048 580 ft 0 kts 180°
2026-04-18 04:37 47.91781 -122.28048 579 ft 3 kts 180°
2026-04-18 04:37 47.91746 -122.28048 578 ft 6 kts 180°
2026-04-18 04:38 47.91695 -122.28048 575 ft 8 kts 180°
2026-04-18 04:38 47.91620 -122.28049 569 ft 12 kts 182°
2026-04-18 04:38 47.91521 -122.28054 562 ft 15 kts 181°
2026-04-18 04:38 47.91408 -122.28050 559 ft 15 kts 177°
2026-04-18 04:39 47.91323 -122.28059 564 ft 8 kts 202°
2026-04-18 04:39 47.91298 -122.28098 566 ft 3 kts 245°
2026-04-18 04:39 47.91292 -122.28128 567 ft 3 kts 258°
2026-04-18 04:39 47.91288 -122.28207 569 ft 11 kts 269°
2026-04-18 04:40 47.91270 -122.28316 576 ft 11 kts 216°
2026-04-18 04:40 47.91179 -122.28343 583 ft 15 kts 180°
2026-04-18 04:40 47.91053 -122.28339 588 ft 20 kts 178°
2026-04-18 04:40 47.90893 -122.28335 596 ft 25 kts 179°
2026-04-18 04:41 47.90696 -122.28335 599 ft 31 kts 180°
2026-04-18 04:41 47.90460 -122.28326 600 ft 33 kts 178°
2026-04-18 04:41 47.90240 -122.28320 600 ft 29 kts 180°
2026-04-18 04:41 47.90034 -122.28318 592 ft 29 kts 180°
2026-04-18 04:42 47.89836 -122.28312 583 ft 22 kts 177°
2026-04-18 04:42 47.89731 -122.28316 577 ft 10 kts 191°
2026-04-18 04:42 47.89678 -122.28418 564 ft 17 kts 265°
2026-04-18 04:42 47.89737 -122.28531 561 ft 12 kts 350°
2026-04-18 04:43 47.89761 -122.28533 563 ft 0 kts 358°
2026-04-18 04:44 47.89762 -122.28533 563 ft 0 kts 358°
2026-04-18 04:44 47.89840 -122.28538 567 ft 36 kts 359°
2026-04-18 04:45 47.90347 -122.28546 594 ft 108 kts 359°
2026-04-18 04:45 47.91346 -122.28573 580 ft 176 kts 359°
2026-04-18 04:45 47.92665 -122.28557 1107 ft 195 kts
2026-04-18 04:45 47.94008 -122.28519 2092 ft 198 kts
2026-04-18 04:46 47.95364 -122.28527 3081 ft 202 kts
2026-04-18 04:46 47.96772 -122.28313 3942 ft 207 kts 26°
2026-04-18 04:46 47.97920 -122.27010 4677 ft 214 kts 60°
2026-04-18 04:46 47.98458 -122.24941 5023 ft 221 kts 83°
2026-04-18 04:47 47.98664 -122.22588 5255 ft 237 kts 85°
2026-04-18 04:47 47.98837 -122.20050 5540 ft 254 kts 86°
2026-04-18 04:47 47.98693 -122.17417 5861 ft 264 kts 111°
2026-04-18 04:47 47.97694 -122.15018 6079 ft 281 kts 138°
2026-04-18 04:48 47.95954 -122.13489 6470 ft 293 kts 165°
2026-04-18 04:48 47.93945 -122.13030 7145 ft 297 kts 175°
2026-04-18 04:48 47.91866 -122.12797 7886 ft 300 kts 176°
2026-04-18 04:48 47.89768 -122.12575 8555 ft 304 kts 176°
2026-04-18 04:49 47.87673 -122.12345 9208 ft 308 kts 176°
2026-04-18 04:49 47.85542 -122.12097 10080 ft 303 kts 176°
2026-04-18 04:49 47.83414 -122.11837 10546 ft 314 kts 176°
2026-04-18 04:49 47.81167 -122.11558 10815 ft 329 kts 177°
2026-04-18 04:50 47.78810 -122.11839 11050 ft 345 kts 197°
2026-04-18 04:50 47.76653 -122.13451 11303 ft 360 kts 219°
2026-04-18 04:50 47.74986 -122.16273 11600 ft 374 kts 237°
2026-04-18 04:50 47.73602 -122.19611 12273 ft 378 kts 239°
2026-04-18 04:51 47.72260 -122.22933 13021 ft 380 kts 239°
2026-04-18 04:51 47.70895 -122.26311 13740 ft 383 kts 239°
2026-04-18 04:51 47.69524 -122.29698 14408 ft 387 kts 239°
2026-04-18 04:51 47.68119 -122.33166 15113 ft 390 kts 239°
2026-04-18 04:52 47.66712 -122.36633 15805 ft 393 kts 239°
2026-04-18 04:52 47.65311 -122.40083 16450 ft 396 kts 239°
2026-04-18 04:52 47.63892 -122.43571 17100 ft 399 kts 239°
2026-04-18 04:52 47.62452 -122.47105 17714 ft 403 kts 239°
2026-04-18 04:53 47.61009 -122.50646 18362 ft 405 kts 240°
2026-04-18 04:53 47.59748 -122.54421 18959 ft 409 kts 249°
2026-04-18 04:53 47.58937 -122.58425 19498 ft 412 kts 259°
2026-04-18 04:53 47.58591 -122.62624 20078 ft 415 kts 269°
2026-04-18 04:54 47.58738 -122.66905 20682 ft 418 kts 278°
2026-04-18 04:54 47.59389 -122.71117 21297 ft 420 kts 287°
2026-04-18 04:54 47.60527 -122.75114 21884 ft 422 kts 297°
2026-04-18 04:54 47.61966 -122.78879 22452 ft 425 kts 299°
2026-04-18 04:55 47.63448 -122.82668 22971 ft 428 kts 299°
2026-04-18 04:55 47.64925 -122.86474 23486 ft 430 kts 299°
2026-04-18 04:55 47.66412 -122.90331 24013 ft 432 kts 298°
2026-04-18 04:56 47.69376 -122.98080 25029 ft 436 kts 298°
2026-04-18 04:56 47.70863 -123.01987 25419 ft 439 kts 298°
2026-04-18 04:56 47.72370 -123.05959 25850 ft 442 kts 298°
2026-04-18 04:56 47.73874 -123.09933 26265 ft 445 kts 298°
2026-04-18 04:57 47.75386 -123.13937 26685 ft 448 kts 298°
2026-04-18 04:57 47.76902 -123.17959 27115 ft 450 kts 298°
2026-04-18 04:57 47.78431 -123.22023 27541 ft 453 kts 298°
2026-04-18 04:57 47.79971 -123.26122 27879 ft 457 kts 298°
2026-04-18 04:58 47.81522 -123.30259 28194 ft 461 kts 298°
2026-04-18 04:58 47.83082 -123.34428 28598 ft 463 kts 297°
2026-04-18 04:58 47.84641 -123.38599 29037 ft 465 kts 298°
2026-04-18 04:58 47.86218 -123.42827 29357 ft 469 kts 297°
2026-04-18 04:59 47.87803 -123.47084 29778 ft 471 kts 298°
2026-04-18 04:59 47.89376 -123.51308 30161 ft 473 kts 298°
2026-04-18 04:59 47.90959 -123.55563 30562 ft 473 kts 298°
2026-04-18 04:59 47.92561 -123.59874 31130 ft 469 kts 297°
2026-04-18 05:00 47.94134 -123.64113 31719 ft 465 kts 297°
2026-04-18 05:00 47.95690 -123.68315 31965 ft 466 kts 297°
2026-04-18 05:00 47.98811 -123.76763 31966 ft 463 kts 297°
2026-04-18 05:01 48.01920 -123.85208 31921 ft 464 kts 297°
2026-04-18 05:01 48.04978 -123.93541 31949 ft 461 kts 297°
2026-04-18 05:02 48.08063 -124.01973 31969 ft 463 kts 297°
2026-04-18 05:02 48.11145 -124.10425 31967 ft 465 kts 297°
2026-04-18 05:03 48.14224 -124.18895 31999 ft 460 kts 297°
2026-04-18 05:03 48.17284 -124.27339 31970 ft 464 kts 297°
2026-04-18 05:04 48.20330 -124.35771 31946 ft 455 kts 296°
2026-04-18 05:04 48.23342 -124.44140 32096 ft 457 kts 296°
2026-04-18 05:05 48.26353 -124.52531 32144 ft 455 kts 296°
2026-04-18 05:05 48.29596 -124.60649 32173 ft 453 kts 306°
2026-04-18 05:06 48.34152 -124.67345 32169 ft 468 kts 320°
2026-04-18 05:06 48.39467 -124.73069 32173 ft 466 kts 321°
2026-04-18 05:07 48.44697 -124.78701 32202 ft 465 kts 321°
2026-04-18 05:07 48.48212 -124.82511 32186 ft 472 kts 321°
2026-04-18 05:08 48.55294 -124.90222 32180 ft 470 kts 321°
2026-04-18 05:08 48.60601 -124.96029 32171 ft 473 kts 321°
2026-04-18 05:09 48.65922 -125.01868 32177 ft 477 kts 321°
2026-04-18 05:09 48.71296 -125.07784 32170 ft 476 kts 321°
2026-04-18 05:10 48.76663 -125.13708 32154 ft 481 kts 321°
2026-04-18 05:10 48.82029 -125.19647 32185 ft 474 kts 322°
2026-04-18 05:11 48.87350 -125.25554 32216 ft 475 kts 322°
2026-04-18 05:11 48.92738 -125.31553 32145 ft 481 kts 321°
2026-04-18 05:12 48.98112 -125.37550 32178 ft 477 kts 322°
2026-04-18 05:12 49.03451 -125.43525 32154 ft 476 kts 322°
2026-04-18 05:13 49.08789 -125.49516 32140 ft 482 kts 322°
2026-04-18 05:13 49.14218 -125.55622 32154 ft 481 kts 322°
2026-04-18 05:14 49.19608 -125.61701 32149 ft 481 kts 322°
2026-04-18 05:14 49.24937 -125.67728 32170 ft 482 kts 321°
2026-04-18 05:15 49.30325 -125.73839 32178 ft 479 kts 321°
2026-04-18 05:15 49.35699 -125.79951 32185 ft 485 kts 321°
2026-04-18 05:16 49.41089 -125.86098 32176 ft 482 kts 321°
2026-04-18 05:16 49.46494 -125.92281 32163 ft 486 kts 321°
2026-04-18 05:17 49.51866 -125.98443 32183 ft 486 kts 321°
2026-04-18 05:17 49.57312 -126.04707 32177 ft 488 kts 321°
2026-04-18 05:18 49.62779 -126.11013 32143 ft 493 kts 321°
2026-04-18 05:18 49.68225 -126.17310 32125 ft 488 kts 321°
2026-04-18 05:19 49.73654 -126.23610 32120 ft 491 kts 321°
2026-04-18 05:19 49.79087 -126.29931 32104 ft 488 kts 321°
2026-04-18 05:20 49.84512 -126.36261 32131 ft 493 kts 321°
2026-04-18 05:20 49.89989 -126.42670 32117 ft 493 kts 321°
2026-04-18 05:21 49.95448 -126.49076 32123 ft 492 kts 321°
2026-04-18 05:21 50.00905 -126.55500 32118 ft 493 kts 322°
2026-04-18 05:22 50.06366 -126.61947 32123 ft 494 kts 322°
2026-04-18 05:22 50.11832 -126.68418 32136 ft 493 kts 321°
2026-04-18 05:23 50.17268 -126.74873 32156 ft 493 kts 321°
2026-04-18 05:23 50.22374 -126.80952 32161 ft 493 kts 321°
2026-04-18 05:24 50.27825 -126.87462 32146 ft 492 kts 321°
2026-04-18 05:24 50.33266 -126.93979 32140 ft 493 kts 321°
2026-04-18 05:25 50.38701 -127.00508 32136 ft 494 kts 321°
2026-04-18 05:25 50.44146 -127.07069 32130 ft 493 kts 321°
2026-04-18 05:26 50.49584 -127.13641 32154 ft 495 kts 321°
2026-04-18 05:26 50.54989 -127.20191 32195 ft 493 kts 321°
2026-04-18 05:27 50.60455 -127.26836 32183 ft 495 kts 321°
2026-04-18 05:27 50.65861 -127.33439 32176 ft 493 kts 319°
2026-04-18 05:28 50.70509 -127.41348 32188 ft 492 kts 304°
2026-04-18 05:28 50.74484 -127.50051 32215 ft 490 kts 304°
2026-04-18 05:29 50.78422 -127.58778 32217 ft 490 kts 304°
2026-04-18 05:29 50.82373 -127.67582 32221 ft 490 kts 303°
2026-04-18 05:30 50.86314 -127.76405 32105 ft 492 kts 303°
2026-04-18 05:30 50.90227 -127.85196 32185 ft 490 kts 303°
2026-04-18 05:31 50.94152 -127.94048 32164 ft 491 kts 303°
2026-04-18 05:31 50.98082 -128.02946 32116 ft 492 kts 303°
2026-04-18 05:32 51.01958 -128.11749 32160 ft 491 kts 303°
2026-04-18 05:32 51.05875 -128.20679 32159 ft 489 kts 303°
2026-04-18 05:33 51.09750 -128.29541 32155 ft 488 kts 303°
2026-04-18 05:33 51.13590 -128.38353 32166 ft 488 kts 303°
2026-04-18 05:34 51.17477 -128.47304 32151 ft 488 kts 303°
2026-04-18 05:34 51.21262 -128.56052 32155 ft 486 kts 303°
2026-04-18 05:35 51.25097 -128.64943 32155 ft 488 kts 303°
2026-04-18 05:35 51.28939 -128.73881 32154 ft 485 kts 302°
2026-04-18 05:36 51.32751 -128.82782 32148 ft 487 kts 302°
2026-04-18 05:36 51.36547 -128.91675 32159 ft 483 kts 302°
2026-04-18 05:37 51.40358 -129.00635 32126 ft 485 kts 302°
2026-04-18 05:37 51.44123 -129.09514 32115 ft 484 kts 302°
2026-04-18 05:38 51.47904 -129.18465 32166 ft 482 kts 302°
2026-04-18 05:38 51.51656 -129.27376 32146 ft 481 kts 302°
2026-04-18 05:39 51.55386 -129.36266 32090 ft 481 kts 302°
2026-04-18 05:39 51.59121 -129.45198 32119 ft 482 kts 302°
2026-04-18 05:40 51.62832 -129.54106 32118 ft 483 kts 302°
2026-04-18 05:40 51.66565 -129.63095 32144 ft 480 kts 302°
2026-04-18 05:41 51.70268 -129.72043 32151 ft 479 kts 301°
2026-04-18 05:41 51.73958 -129.80992 32128 ft 479 kts 301°
2026-04-18 05:42 51.77605 -129.89867 32164 ft 476 kts 301°
2026-04-18 05:42 51.81292 -129.98869 32130 ft 481 kts 301°
2026-04-18 05:43 51.84972 -130.07889 32176 ft 477 kts 302°
2026-04-18 05:43 51.88629 -130.16882 32134 ft 481 kts 301°
2026-04-18 05:44 51.92296 -130.25931 32110 ft 479 kts 301°
2026-04-18 05:44 51.95953 -130.34985 32076 ft 480 kts 301°
2026-04-18 05:45 51.99596 -130.44038 32103 ft 474 kts 301°
2026-04-18 05:45 52.03178 -130.52972 32076 ft 476 kts 301°
2026-04-18 05:46 52.04973 -130.57459 32177 ft 473 kts 301°
2026-04-18 05:46 52.06771 -130.61966 32099 ft 475 kts 301°
2026-04-18 05:46 52.10354 -130.70964 32111 ft 470 kts 301°
2026-04-18 05:47 52.13916 -130.79942 32093 ft 476 kts 301°
2026-04-18 05:47 52.17401 -130.88756 32150 ft 468 kts 301°
2026-04-18 05:48 52.20954 -130.97772 32109 ft 471 kts 301°
2026-04-18 05:48 52.24485 -131.06767 32079 ft 470 kts 301°
2026-04-18 05:49 52.27989 -131.15721 32119 ft 466 kts 300°
2026-04-18 05:49 52.31486 -131.24693 32070 ft 470 kts 301°
2026-04-18 05:50 52.34978 -131.33682 32097 ft 469 kts 300°
2026-04-18 05:50 52.38460 -131.42674 32131 ft 467 kts 300°
2026-04-18 05:51 52.41946 -131.51712 32032 ft 468 kts 300°
2026-04-18 05:51 52.43681 -131.56221 32141 ft 464 kts 300°
2026-04-18 05:51 52.45393 -131.60680 32006 ft 467 kts 300°
2026-04-18 05:52 52.48827 -131.69643 32081 ft 462 kts 300°
2026-04-18 05:52 52.52261 -131.78642 32082 ft 467 kts 300°
2026-04-18 05:53 52.55676 -131.87617 32116 ft 459 kts 300°
2026-04-18 05:53 52.59087 -131.96623 32099 ft 467 kts 300°
2026-04-18 05:54 52.62500 -132.05661 32089 ft 465 kts 300°
2026-04-18 05:54 52.65929 -132.14774 32051 ft 471 kts 299°
2026-04-18 05:55 52.69342 -132.23874 32052 ft 460 kts 300°
2026-04-18 05:55 52.72686 -132.32826 32086 ft 462 kts 299°
2026-04-18 05:56 52.76079 -132.41942 32088 ft 465 kts 300°
2026-04-18 05:56 52.79452 -132.51033 32046 ft 463 kts 299°
2026-04-18 05:57 52.84484 -132.64662 32070 ft 461 kts 300°
2026-04-18 05:58 52.87820 -132.73738 32061 ft 464 kts 299°
2026-04-18 05:58 52.91161 -132.82861 32062 ft 461 kts 298°
2026-04-18 05:59 52.92337 -132.86079 32044 ft 460 kts 298°